Tracking 35280 objects as of 7-Sep-2026
HD Live streaming from Space Station
objects crossing your sky now

COSMOS 1823 DEB


COSMOS 1823 DEB is no longer on orbit


NORAD ID: 19006
Int'l Code: 1987-020BB
Launch date: February 20, 1987
Source: Commonwealth of Independent States (former USSR) (CIS)
Launch site: PLESETSK MISSILE AND SPACE COMPLEX (PKMTR)
Decay date: 2024-09-23

Note: This is SATELLITE DEBRIS
Your satellite tracking list
Your tracking list is empty




NASA's NSSDC Master Catalog

Two Line Element Set (TLE):
1 19006U 87020BB  24263.79615277  .04634571  00000-0  18494+0 0  9999
2 19006  73.3635  21.7087 0051399 340.5053 147.2410 15.19270449758109
Source of the keplerian elements: AFSPC